Preview of NWS' New Version of Forecast
This preview is not operational and should not be used for support decisions.

Regional Weather Roundup (RWR)

Issued by Jackson, KY (JKL)

                            
000
ASUS43 KJKL 170510
RWRJKL

EAST KENTUCKY HOURLY WEATHER ROUNDUP
NATIONAL WEATHER SERVICE JACKSON KY
1200 AM EST MON DEC 17 2018

NOTE: "FAIR" INDICATES FEW OR NO CLOUDS BELOW 12,000 FEET WITH
NO SIGNIFICANT WEATHER AND/OR OBSTRUCTIONS TO VISIBILITY.

* THESE REPORTS ARE NOT UNDER NWS QUALITY CONTROL AND MAY NOT
  REPORT WEATHER SUCH AS PRECIPITATION AND FOG.

KYZ079-080-083-085-087-088-110-112-115-119-120-170600
...EASTERN KENTUCKY...
  
CITY           SKY/WX    TMP DP  RH WIND       PRES   REMARKS
JACKSON        FOG       42  42 100 CALM      30.14S VSB 1/4          
LONDON         CLOUDY    44  44 100 SW3       30.16F                  
SOMERSET*      CLOUDY    43  43 100 CALM      30.18F FOG              
WILLIAMSBURG*  CLOUDY    43  43 100 SW5       30.17F VSB 1            
MIDDLESBORO*   CLOUDY    44  44  99 CALM      30.18F                  
HARLAN APT*    CLOUDY    42  41  98 CALM      30.16F                  
PIKE CO APT*   CLOUDY    41  41 100 CALM      30.13F FOG              
BIG SANDY APT* CLOUDY    42  42 100 W5        30.14S                  
MOREHEAD APT*  CLOUDY    43  41  93 W6        30.16R FOG              
ASHLAND*       CLOUDY    42  40  92 SW5       30.13S                  
$$

KYZ035-036-041-042-044-050-067-078-099-170600
...CENTRAL KENTUCKY...
  
CITY           SKY/WX    TMP DP  RH WIND       PRES   REMARKS
MT STERLING*   CLOUDY    43  43 100 W8        30.16S                  
FLEMING/MASON* CLOUDY    42  42 100 W9        30.14F FOG              
DANVILLE*        N/A     37  37 100 W3        30.17S                  
LEXINGTON      CLOUDY    42  40  92 W9        30.15F FOG              
FRANKFORT        N/A     41  38  89 W6        30.14F                  
LOUISVILLE       N/A     41  36  82 W3        30.16F                  
LEBANON*       FOG       39  39 100 SW5       30.17F VSB 3/4          
GLASGOW*       FOG       32  32 100 CALM      30.18F VSB 1/4          
BOWLING GREEN    N/A     37  35  92 CALM      30.19F                  
$$

KYZ091>093-OHZ055-061-077-WVZ005-015-034-035-042-170600
...SOUTHERN OHIO/WEST VIRGINIA...
  
CITY           SKY/WX    TMP DP  RH WIND       PRES   REMARKS
COVINGTON        N/A     36  34  92 SW3       30.11F FOG              
COLUMBUS         N/A     39  37  92 SW6       30.05F WCI  35          
DAYTON           N/A     35  33  92 SW9       30.08F WCI  28          
WILMINGTON     CLOUDY    39  37  92 W9        30.09F FOG     WCI  33  
HUNTINGTON     MOCLDY    43  40  89 SW7       30.12S                  
CHARLESTON     CLOUDY    43  42  97 SW7       30.10F FOG              
PINEVILLE*     MIX PCPN  42  41  95 MISG      30.15S                  
BECKLEY        CLOUDY    39  38  96 W13       30.06F WCI  31          
BLUEFIELD      CLOUDY    38  37  97 W13G21    30.07S FOG     WCI  30  
LOGAN CO APT*  CLOUDY    41  41 100 VRB3G13   30.10F FOG              
$$

VAZ002-007-008-TNZ017-027-036-066-071-170600
...SOUTHWEST VIRGINIA/EAST TENNESSEE...
  
CITY           SKY/WX    TMP DP  RH WIND       PRES   REMARKS
WISE*          CLOUDY    41  41 100 W7        30.13F FOG              
ABINGDON*      CLOUDY    42  42 100 W6        30.14S FOG              
BRISTOL        CLOUDY    44  44 100 SW5       30.16S                  
MORRISTOWN*    CLOUDY    45  43  93 W5        30.17S                  
SEVIERVILLE*   CLOUDY    46  43  87 SW5       30.19S                  
KNOXVILLE      CLOUDY    46  43  89 SW7       30.19S                  
LAFOLLETTE*    CLOUDY    46  45  93 VRB5      30.22S                  
OAK RIDGE      CLOUDY    47  45  93 CALM      30.21S                  
CROSSVILLE     CLOUDY    43  42  97 W5        30.19S FOG              
NASHVILLE      MOCLDY    49  34  56 VRB3      30.22S                  
$$

...KEY TO REMARKS...
VSB - VISIBILITY IN MILES
WCI - WIND CHILL INDEX
HX  - HEAT INDEX

$$